User: anonymous   Login
Location: Unspecified
(0.0000°N, 0.0000°E)
Time: 11:21:23
(UTC+02:00)
Language:

OPAL - Orbit

View from above orbital plane
View from above orbital plane
View from above satellite
View from above satellite

Ground track
Ground track

The orbit data is extracted from the following two-line orbital elements,

1 26063U 00004C   15088.11669406  .00000202  00000-0  88272-4 0  9991
2 26063 100.2269 291.9665 0037218 075.7025 284.8284 14.36514362794937
Epoch (UTC): 29 March 2015 02:48:02
Eccentricity: 0.0037218
inclination: 100.2269°
perigee height: 743 km
apogee height: 796 km
right ascension of ascending node: 291.9665°
argument of perigee: 75.7025°
revolutions per day: 14.36514362
mean anomaly at epoch: 284.8284°
orbit number at epoch: 79493

The dashed part of the orbit path shows where the satellite is in the earth's shadow,  

DLR